TimeEST,TemperatureF,Dew PointF,Humidity,Sea Level PressureIn,VisibilityMPH,Wind Direction,Wind SpeedMPH,Gust SpeedMPH,PrecipitationIn,Events,Conditions,WindDirDegrees,DateUTC
12:53 AM,41.0,37.9,89,30.32,10.0,Calm,Calm,-,N/A,,Clear,0,2013-01-24 05:53:00
1:53 AM,39.0,37.0,93,30.31,10.0,Calm,Calm,-,N/A,,Clear,0,2013-01-24 06:53:00
2:53 AM,39.0,37.0,93,30.30,10.0,Calm,Calm,-,N/A,,Clear,0,2013-01-24 07:53:00
3:53 AM,37.9,36.0,93,30.30,10.0,North,3.5,-,N/A,,Clear,350,2013-01-24 08:53:00
4:53 AM,39.0,36.0,89,30.31,10.0,Calm,Calm,-,N/A,,Clear,0,2013-01-24 09:53:00
5:53 AM,35.1,33.1,92,30.30,10.0,Calm,Calm,-,N/A,,Clear,0,2013-01-24 10:53:00
6:53 AM,35.1,33.1,92,30.31,10.0,Calm,Calm,-,N/A,,Clear,0,2013-01-24 11:53:00
7:53 AM,36.0,34.0,93,30.33,10.0,Calm,Calm,-,N/A,,Clear,0,2013-01-24 12:53:00
8:53 AM,48.0,44.1,86,30.35,10.0,Calm,Calm,-,N/A,,Clear,0,2013-01-24 13:53:00
9:53 AM,62.1,46.9,58,30.36,10.0,NNW,6.9,-,N/A,,Clear,330,2013-01-24 14:53:00
10:53 AM,66.9,45.0,45,30.36,10.0,Variable,4.6,-,N/A,,Clear,0,2013-01-24 15:53:00
11:53 AM,69.1,45.0,42,30.34,10.0,NW,12.7,-,N/A,,Clear,320,2013-01-24 16:53:00
12:53 PM,70.0,43.0,38,30.31,10.0,WNW,11.5,-,N/A,,Clear,300,2013-01-24 17:53:00
1:53 PM,70.0,46.9,44,30.28,10.0,NW,16.1,-,N/A,,Clear,320,2013-01-24 18:53:00
2:53 PM,69.1,51.1,53,30.27,10.0,WNW,13.8,-,N/A,,Clear,300,2013-01-24 19:53:00
3:53 PM,68.0,51.1,55,30.28,10.0,WNW,12.7,-,N/A,,Clear,300,2013-01-24 20:53:00
4:53 PM,66.9,51.1,57,30.27,10.0,NW,8.1,-,N/A,,Clear,320,2013-01-24 21:53:00
5:53 PM,63.0,53.1,70,30.28,10.0,WNW,6.9,-,N/A,,Clear,300,2013-01-24 22:53:00
6:53 PM,57.0,52.0,83,30.29,10.0,Calm,Calm,-,N/A,,Clear,0,2013-01-24 23:53:00
7:53 PM,50.0,46.9,89,30.30,10.0,Calm,Calm,-,N/A,,Clear,0,2013-01-25 00:53:00
8:43 PM,46.4,46.4,100,30.30,1.8,Calm,Calm,-,N/A,,Clear,0,2013-01-25 01:43:00
8:50 PM,48.2,46.4,93,30.30,1.2,Calm,Calm,-,N/A,,Clear,0,2013-01-25 01:50:00
8:53 PM,48.0,46.9,96,30.30,2.5,Calm,Calm,-,N/A,,Clear,0,2013-01-25 01:53:00
9:00 PM,48.2,46.4,93,30.30,8.0,Calm,Calm,-,N/A,,Clear,0,2013-01-25 02:00:00
9:53 PM,46.9,46.0,97,30.30,7.0,Calm,Calm,-,N/A,,Clear,0,2013-01-25 02:53:00
10:10 PM,46.4,44.6,93,30.31,0.8,Calm,Calm,-,N/A,,Clear,0,2013-01-25 03:10:00
10:31 PM,44.6,44.6,100,30.31,2.0,Calm,Calm,-,N/A,,Clear,0,2013-01-25 03:31:00
10:38 PM,46.4,44.6,93,30.31,1.5,Calm,Calm,-,N/A,,Clear,0,2013-01-25 03:38:00
10:53 PM,44.1,44.1,100,30.31,1.2,Calm,Calm,-,N/A,,Clear,0,2013-01-25 03:53:00
11:01 PM,42.8,42.8,100,30.31,2.5,Calm,Calm,-,N/A,,Partly Cloudy,0,2013-01-25 04:01:00
11:10 PM,42.8,42.8,100,30.31,5.0,Calm,Calm,-,N/A,,Partly Cloudy,0,2013-01-25 04:10:00
11:45 PM,42.8,42.8,100,30.32,1.8,Calm,Calm,-,N/A,,Clear,0,2013-01-25 04:45:00
11:53 PM,45.0,43.0,93,30.32,1.8,Calm,Calm,-,N/A,,Clear,0,2013-01-25 04:53:00
11:56 PM,44.6,42.8,93,30.32,3.0,Calm,Calm,-,N/A,,Clear,0,2013-01-25 04:56:00